• In Hungary
  • List of Countries
  • For 7 days
  • Water Temperature
  • Satellite Maps
  • Weather Map
  • News
  • Weather Widgets
  • user-avatar
    Login

    Hourly Weather Przybedza

    Today, 17 August, Friday

    Time Temperature Precipitation Wind Pressure Humidity
    00:00 +16°C° 0 mm 1 mps 725 mmHg 89%
    01:00 +16°C° 0 mm 1 mps 725 mmHg 90%
    02:00 +16°C° 0 mm 1 mps 725 mmHg 90%
    03:00 +16°C° 0 mm 1 mps 725 mmHg 90%
    04:00 +16°C° 0 mm 1 mps 725 mmHg 90%
    05:00 +18°C° 0 mm 1 mps 725 mmHg 86%
    06:00 +20°C° 0 mm 1 mps 725 mmHg 81%
    07:00 +21°C° 0 mm 1 mps 725 mmHg 75%
    08:00 +23°C° 0 mm 1 mps 725 mmHg 67%
    09:00 +25°C° 0 mm 1 mps 725 mmHg 60%
    10:00 +27°C° 0 mm 1 mps 726 mmHg 53%
    11:00 +27°C° 0.2 mm 1 mps 725 mmHg 52%
    12:00 +28°C° 0.2 mm 1 mps 725 mmHg 51%
    13:00 +28°C° 0 mm 1 mps 725 mmHg 50%
    14:00 +27°C° 0.5 mm 1 mps 725 mmHg 53%
    15:00 +27°C° 0.5 mm 1 mps 725 mmHg 55%
    16:00 +27°C° 0.5 mm 1 mps 725 mmHg 57%
    17:00 +25°C° 0.2 mm 1 mps 724 mmHg 62%
    18:00 +24°C° 0.2 mm 1 mps 724 mmHg 67%
    19:00 +22°C° 0.2 mm 1 mps 724 mmHg 71%
    20:00 +21°C° 0 mm 1 mps 724 mmHg 74%
    21:00 +20°C° 0 mm 1 mps 724 mmHg 77%
    22:00 +20°C° 0 mm 1 mps 725 mmHg 80%
    23:00 +19°C° 0 mm 1 mps 725 mmHg 80%

    Tomorrow, 18 August, Saturday

    Time Temperature Precipitation Wind Pressure Humidity
    00:00 +19°C° 0 mm 1 mps 725 mmHg 81%
    01:00 +19°C° 0 mm 1 mps 725 mmHg 82%
    02:00 +18°C° 0 mm 1 mps 725 mmHg 82%
    03:00 +18°C° 0 mm 1 mps 725 mmHg 82%
    04:00 +18°C° 0 mm 1 mps 725 mmHg 82%
    05:00 +19°C° 0 mm 1 mps 726 mmHg 78%
    06:00 +21°C° 0 mm 1 mps 726 mmHg 75%
    07:00 +22°C° 0 mm 1 mps 726 mmHg 71%
    08:00 +24°C° 0 mm 1 mps 726 mmHg 63%
    09:00 +26°C° 0 mm 1 mps 727 mmHg 55%
    10:00 +28°C° 0 mm 1 mps 727 mmHg 47%
    11:00 +28°C° 0 mm 2 mps 727 mmHg 46%
    12:00 +29°C° 0 mm 2 mps 727 mmHg 44%
    13:00 +29°C° 0 mm 2 mps 727 mmHg 43%
    14:00 +29°C° 0 mm 2 mps 727 mmHg 44%
    15:00 +29°C° 0 mm 2 mps 727 mmHg 46%
    16:00 +28°C° 0 mm 2 mps 727 mmHg 48%
    17:00 +26°C° 0.1 mm 2 mps 726 mmHg 56%
    18:00 +25°C° 0.1 mm 1 mps 726 mmHg 63%
    19:00 +23°C° 0.1 mm 1 mps 726 mmHg 71%
    20:00 +22°C° 0.1 mm 1 mps 727 mmHg 74%
    21:00 +21°C° 0.1 mm 1 mps 727 mmHg 77%
    22:00 +20°C° 0.1 mm 1 mps 727 mmHg 79%
    23:00 +20°C° 0 mm 1 mps 727 mmHg 81%

    Day after tomorrow, 19 August, Sunday

    Time Temperature Precipitation Wind Pressure Humidity
    00:00 +19°C° 0 mm 1 mps 727 mmHg 82%
    01:00 +19°C° 0 mm 1 mps 727 mmHg 83%
    02:00 +19°C° 0 mm 1 mps 727 mmHg 84%
    03:00 +19°C° 0 mm 1 mps 727 mmHg 86%
    04:00 +18°C° 0 mm 1 mps 727 mmHg 87%
    05:00 +20°C° 0 mm 1 mps 727 mmHg 83%
    06:00 +21°C° 0 mm 1 mps 728 mmHg 80%
    07:00 +22°C° 0 mm 1 mps 728 mmHg 76%
    08:00 +24°C° 0 mm 1 mps 728 mmHg 69%
    09:00 +26°C° 0 mm 1 mps 728 mmHg 62%
    10:00 +27°C° 0 mm 2 mps 729 mmHg 54%
    11:00 +28°C° 0.2 mm 2 mps 728 mmHg 53%
    12:00 +28°C° 0.2 mm 2 mps 728 mmHg 52%
    13:00 +29°C° 0.2 mm 2 mps 728 mmHg 51%
    14:00 +29°C° 0.1 mm 2 mps 727 mmHg 51%
    15:00 +29°C° 0.1 mm 2 mps 727 mmHg 51%
    16:00 +28°C° 0.1 mm 2 mps 727 mmHg 51%
    17:00 +26°C° 0.1 mm 2 mps 727 mmHg 58%
    18:00 +25°C° 0.1 mm 1 mps 727 mmHg 65%
    19:00 +23°C° 0.1 mm 1 mps 727 mmHg 72%
    20:00 +22°C° 0 mm 1 mps 727 mmHg 75%
    21:00 +21°C° 0 mm 1 mps 727 mmHg 77%
    22:00 +20°C° 0 mm 1 mps 727 mmHg 80%
    23:00 +20°C° 0 mm 1 mps 727 mmHg 81%

    20 August, Monday

    Time Temperature Precipitation Wind Pressure Humidity
    00:00 +20°C° 0 mm 1 mps 726 mmHg 82%
    01:00 +19°C° 0 mm 1 mps 726 mmHg 84%
    02:00 +19°C° 0 mm 1 mps 726 mmHg 85%
    03:00 +19°C° 0 mm 1 mps 726 mmHg 85%
    04:00 +18°C° 0 mm 1 mps 726 mmHg 86%
    05:00 +20°C° 0 mm 1 mps 726 mmHg 82%
    06:00 +19°C° 0 mm 0 mps 726 mmHg 78%
    07:00 +21°C° 0 mm 0 mps 726 mmHg 73%
    08:00 +23°C° 0.1 mm 0 mps 726 mmHg 66%
    09:00 +25°C° 0.1 mm 0 mps 727 mmHg 59%
    10:00 +29°C° 0.1 mm 1 mps 727 mmHg 51%
    11:00 +28°C° 0.1 mm 0 mps 726 mmHg 48%
    12:00 +28°C° 0.1 mm 0 mps 726 mmHg 44%
    13:00 +29°C° 0.1 mm 0 mps 726 mmHg 41%
    14:00 +31°C° 0 mm 1 mps 726 mmHg 43%
    15:00 +30°C° 0 mm 1 mps 725 mmHg 46%
    16:00 +29°C° 0 mm 1 mps 725 mmHg 48%
    17:00 +27°C° 0 mm 1 mps 725 mmHg 54%
    18:00 +26°C° 0 mm 1 mps 725 mmHg 59%
    19:00 +24°C° 0 mm 1 mps 725 mmHg 65%
    20:00 +23°C° 0.2 mm 1 mps 725 mmHg 68%
    21:00 +22°C° 0.2 mm 1 mps 725 mmHg 71%
    22:00 +22°C° 0.2 mm 1 mps 725 mmHg 73%
    23:00 +21°C° 0.3 mm 1 mps 725 mmHg 75%

    21 August, Tuesday

    Time Temperature Precipitation Wind Pressure Humidity
    00:00 +21°C° 0.3 mm 1 mps 725 mmHg 77%
    01:00 +20°C° 0.3 mm 1 mps 724 mmHg 79%
    02:00 +20°C° 0 mm 1 mps 724 mmHg 79%
    03:00 +20°C° 0 mm 1 mps 724 mmHg 80%
    04:00 +20°C° 0 mm 1 mps 724 mmHg 81%
    05:00 +21°C° 0 mm 1 mps 725 mmHg 78%
    06:00 +22°C° 0 mm 1 mps 725 mmHg 75%
    07:00 +23°C° 0 mm 1 mps 725 mmHg 73%
    08:00 +25°C° 0.2 mm 1 mps 726 mmHg 68%
    09:00 +26°C° 0.2 mm 1 mps 726 mmHg 62%
    10:00 +28°C° 0.2 mm 2 mps 726 mmHg 57%
    11:00 +28°C° 0.2 mm 2 mps 726 mmHg 55%
    12:00 +29°C° 0.2 mm 2 mps 726 mmHg 53%
    13:00 +29°C° 0.2 mm 2 mps 726 mmHg 50%
    14:00 +29°C° 0.2 mm 2 mps 726 mmHg 52%
    15:00 +29°C° 0.2 mm 2 mps 726 mmHg 53%
    16:00 +28°C° 0.2 mm 2 mps 726 mmHg 55%
    17:00 +27°C° 0.1 mm 1 mps 725 mmHg 61%
    18:00 +25°C° 0.1 mm 1 mps 725 mmHg 67%
    19:00 +23°C° 0.1 mm 1 mps 725 mmHg 73%
    20:00 +22°C° 0 mm 1 mps 725 mmHg 76%
    21:00 +21°C° 0 mm 1 mps 726 mmHg 78%
    22:00 +19°C° 0 mm 0 mps 726 mmHg 81%
    23:00 +18°C° 0 mm 0 mps 726 mmHg 82%

    22 August, Wednesday

    Time Temperature Precipitation Wind Pressure Humidity
    00:00 +18°C° 0 mm 0 mps 726 mmHg 84%
    01:00 +17°C° 0 mm 0 mps 726 mmHg 85%
    02:00 +17°C° 0 mm 0 mps 726 mmHg 86%
    03:00 +17°C° 0 mm 0 mps 726 mmHg 87%
    04:00 +19°C° 0 mm 1 mps 726 mmHg 87%
    05:00 +18°C° 0 mm 0 mps 726 mmHg 84%
    06:00 +19°C° 0 mm 0 mps 726 mmHg 80%
    07:00 +20°C° 0 mm 0 mps 726 mmHg 76%
    08:00 +22°C° 0.1 mm 0 mps 726 mmHg 69%
    09:00 +24°C° 0.1 mm 0 mps 726 mmHg 63%
    10:00 +28°C° 0.1 mm 1 mps 726 mmHg 56%
    11:00 +28°C° 0.2 mm 1 mps 726 mmHg 54%
    12:00 +29°C° 0.2 mm 1 mps 726 mmHg 52%
    13:00 +29°C° 0.2 mm 1 mps 726 mmHg 50%
    14:00 +29°C° 0.2 mm 2 mps 726 mmHg 52%
    15:00 +29°C° 0.2 mm 2 mps 725 mmHg 54%
    16:00 +28°C° 0.2 mm 2 mps 725 mmHg 56%
    17:00 +26°C° 0.1 mm 1 mps 725 mmHg 61%
    18:00 +25°C° 0.1 mm 1 mps 725 mmHg 67%
    19:00 +23°C° 0.1 mm 1 mps 725 mmHg 73%
    20:00 +22°C° 0 mm 1 mps 725 mmHg 75%
    21:00 +21°C° 0 mm 1 mps 725 mmHg 78%
    22:00 +19°C° 0 mm 0 mps 725 mmHg 80%
    23:00 +18°C° 0 mm 0 mps 725 mmHg 82%
    Show more